World > North America > United States > South Carolina > Okatie  

Okatie, SC Hourly Weather Updates

Feedback E-mail the Weather

Quick Clicks

Okatie, SC Weather Maps

°F °C°F °C
Okatie Weather Map
UTC Time: 4/22/2024, 15:53
Your Time:

Okatie, SC Regional Weather

Expires:202404221600;;189922
ASUS42 KCHS 221525
RWRCHS

Regional Weather Roundup
National Weather Service Charleston SC
1100 AM EDT MON APR 22 2024

NOTE: "fair" indicates few or no clouds below 12,000 feet with no
significant weather and/or obstructions to visibility.

Not all stations are quality controlled. Use data with caution,
especially dewpoint observations.


SCZ027-030-031-034>040-042>050-221600-
...Southeast South Carolina...
  
CITY           SKY/WX    TMP DP  RH WIND       PRES   REMARKS
N Charleston   PTSUNNY   59  42  53 NE14      30.13R                  
Waterfront Prk   N/A     57  49  75 NE16      29.97R                  
Mount Pleasant PTSUNNY   57  45  62 VRB7G16   30.13R                  
Johns Island   MOSUNNY   59  45  58 N12       30.13R                  
Pinopolis        N/A     54  48  82 NE15        N/A                   
Moncks Corner  CLOUDY    55  41  58 N9G18     30.16R                  
Summerville    CLOUDY    55  45  67 N10G16    30.14R                  
Beaufort MCAS  PTSUNNY   61  48  62 N17       30.14R                  
Beaufort Arpt  MOSUNNY   59  32  36 N14G20    30.14R                  
Hilton Head Is CLOUDY    57  48  72 NE15      30.12R                  
Walterboro     CLOUDY    57  43  58 N10G18    30.16R                  
Allendale      PTSUNNY   55  46  71 N7G14     30.16R                  

...Southern Midlands and Pee Dee...
  
CITY           SKY/WX    TMP DP  RH WIND       PRES   REMARKS
Georgetown     CLOUDY    54  37  54 N14G20    30.14R                  
Kingstree      CLOUDY    55  36  47 N9G16     30.17R                  
Orangeburg     CLOUDY    56  44  64 N13G20    30.17R                  
Barnwell       MOSUNNY   59  41  51 NE14G21   30.18R                  
Aiken          CLOUDY    54  40  59 NE10      30.19R                  
Manning        CLOUDY    54  37  54 NE6       30.17R                  
Columbia       PTSUNNY   55  40  56 N9        30.17R                  
Sumter         PTSUNNY   57  39  51 NE12      30.15R                  
Florence       PTSUNNY   58  42  55 NE14G23   30.16R                  
Myrtle Beach   CLOUDY    54  40  59 N8        30.14R                  
N Myrtle Beach CLOUDY    53  39  59 N14G22    30.12R                  

$$
 

SKY/WX - Weather  TMP - Temperature  DP - Dew Point  RH - Humidity
WIND - Wind Direction/Speed PRES - Barometric Pressure VSB - Visibility
WCI - Wind Chill Index E13G22 Wind - East Wind 13 mph/Gusts of 22 mph

Trending Headlines

Trending Entertainment Headlines

Okatie Radar Loop

Use the map search tool if you want to place a location marker on the radar map...

Okatie Quick Facts

National Two Day Weather Forecast


E-mail the Okatie Weather Forecast

Voice your opinion or tell us about page issues...